RH
22 17 14 14 14 14 14 16 17 18 18 22 40 43 28 29 44 53 50 46 42 49 45 45 30 60 78 82 79 69 56 51 44 28 20 16 13 11 12 13 15 13 12 12 12 10 10 10 11
25 19 16 15 14 14 15 16 18 19 17 20 25 23 22 25 23 46 58 63 60 65 58 38 46 50 100 96 100 91 70 64 58 25 15 12 12 12 12 13 13 13 12 13 13 13 12 13 15
29 22 20 17 16 14 15 17 17 17 17 17 20 22 21 21 20 22 41 30 29 80 82 65 83 60 96 97 94 83 86 78 50 47 16 14 15 14 14 15 16 16 16 17 18 16 17 17 20
39 37 24 28 19 16 14 18 19 19 19 18 16 15 15 20 25 23 24 17 20 34 99 78 98 100 94 59 69 84 81 45 32 24 16 21 24 22 18 18 19 25 28 24 24 25 22 22 17
48 41 32 31 33 23 16 15 18 19 20 20 17 17 17 19 26 29 25 19 19 25 71 97 95 68 91 94 87 75 62 51 40 27 29 38 39 37 30 24 26 34 38 44 33 29 21 19 18
45 35 34 33 34 25 21 17 15 18 18 19 20 21 18 15 21 33 37 20 20 29 36 43 35 53 91 62 66 75 59 35 26 31 33 29 23 20 26 26 34 37 53 37 33 24 21 27 28
66 36 42 39 34 28 28 19 18 20 18 17 18 21 24 18 17 19 29 27 17 27 37 55 48 63 48 46 47 50 40 24 22 24 28 23 17 24 22 22 29 46 40 33 32 30 30 37 39
95 57 54 53 34 34 38 26 20 21 29 19 17 21 23 22 20 16 18 24 25 20 22 44 56 42 39 24 21 22 23 22 22 22 25 25 16 20 20 28 41 41 28 38 39 51 45 46 50
95 63 44 83 49 46 41 34 25 26 24 30 21 20 22 23 23 21 16 23 26 27 30 26 30 38 36 24 24 23 24 23 20 21 23 30 27 16 18 23 30 33 35 39 48 63 60 60 47
100 89 59 74 64 45 43 39 38 32 33 33 29 28 24 23 26 26 19 25 26 35 36 45 49 42 47 41 27 27 25 25 24 21 23 31 34 33 22 30 46 41 34 42 71 69 58 59 46
99 100 67 65 78 45 59 55 36 42 44 38 41 27 34 32 24 28 24 20 18 21 56 69 80 81 67 60 56 46 38 37 29 20 23 28 34 39 41 40 46 31 34 38 81 93 83 62 44
98 95 100 92 65 73 60 68 62 50 45 59 39 43 30 28 30 25 26 29 23 21 21 29 81 97 87 94 93 89 71 63 40 24 19 27 31 33 40 45 39 33 45 45 56 100 94 73 60
100 100 100 90 71 72 74 83 77 74 69 49 58 39 46 32 28 34 24 25 35 31 25 24 25 59 76 97 96 97 91 92 66 30 23 31 26 28 30 56 58 51 45 59 59 40 71 95 84
86 100 100 100 85 98 79 59 99 83 85 76 67 49 35 51 30 29 28 22 29 38 33 27 22 18 29 59 59 65 77 100 87 61 52 27 23 25 30 70 69 68 64 81 46 44 41 58 68
66 100 86 100 100 100 100 47 100 100 88 85 60 44 37 35 46 33 33 28 22 27 38 40 31 24 24 24 33 44 49 59 77 79 92 77 40 32 38 57 81 88 92 72 46 56 55 58 64
79 60 100 89 77 87 100 77 96 99 100 100 81 52 42 36 70 51 45 33 26 22 25 38 49 41 28 27 31 27 25 33 53 64 94 98 54 38 42 43 72 84 98 73 67 72 53 64 76
90 78 79 100 100 99 87 100 83 73 100 100 81 98 76 58 68 69 50 44 28 24 21 26 36 51 57 39 34 34 37 30 26 35 43 55 56 40 36 38 39 59 66 66 92 70 64 57 47
100 100 100 100 100 100 100 100 88 82 100 100 95 89 100 88 85 85 67 54 42 27 24 25 27 35 44 59 52 44 40 36 33 28 29 54 51 39 40 39 41 44 49 59 57 72 84 72 50
87 96 100 100 100 100 100 100 100 100 100 100 100 92 99 94 100 96 81 74 54 40 33 30 28 27 28 44 49 50 47 45 44 38 34 32 35 39 44 42 47 48 54 63 77 89 91 84 71
97 90 84 96 100 100 100 100 100 100 100 100 100 100 91 100 100 94 100 100 77 53 44 38 36 34 29 39 46 56 56 39 34 33 32 41 46 45 60 66 96 78 71 83 100 100 100 100 96
100 91 80 76 100 100 100 100 100 100 100 100 80 94 92 100 100 79 97 100 98 66 51 48 42 46 41 31 35 56 73 70 54 44 48 49 52 48 61 81 100 99 87 90 100 88 87 100 100
100 98 91 91 98 100 100 100 100 100 100 100 98 90 88 100 96 99 66 82 100 88 63 55 52 56 63 43 36 34 56 88 80 81 81 69 58 63 62 60 86 100 99 100 93 82 72 52 44
100 100 100 100 90 91 100 100 100 100 100 100 100 98 95 98 85 100 94 74 100 100 100 83 77 83 88 74 55 56 42 46 89 99 98 95 83 77 66 66 92 100 100 100 100 96 74 57 35
100 100 100 100 93 90 100 100 100 100 100 100 100 100 96 90 89 100 100 100 100 100 100 100 100 96 97 95 65 62 66 56 47 42 60 82 90 84 100 73 94 77 67 62 98 100 57 66 68
90 94 100 96 99 98 100 95 100 100 100 100 100 98 99 100 81 100 97 100 100 100 100 100 98 100 82 75 93 71 63 67 67 52 46 44 44 48 57 67 71 72 79 91 83 78 67 68 67
100 81 84 100 100 97 88 97 100 100 100 100 97 100 100 100 89 85 91 100 100 100 100 100 99 100 100 100 100 99 100 97 90 78 59 51 46 50 37 67 89 100 100 100 95 93 95 98 90
100 79 84 86 84 88 99 100 100 100 100 100 100 100 95 72 100 100 100 98 98 100 100 100 100 100 100 100 100 100 98 100 100 100 100 94 80 76 71 88 98 100 100 95 94 100 100 100 99
100 100 95 100 100 100 98 87 80 88 100 100 100 100 95 72 98 96 83 100 97 100 100 100 100 100 98 100 100 100 99 83 66 74 100 100 100 100 91 86 93 100 100 100 100 100 100 100 100
100 86 88 96 93 84 83 72 100 93 82 81 100 100 100 90 99 92 59 76 77 86 99 100 100 100 100 100 100 100 100 90 69 65 66 100 100 100 100 100 100 100 100 100 100 90 88 88 99
100 77 70 66 72 98 75 61 100 100 100 88 98 100 100 92 100 97 55 70 56 78 51 100 100 100 100 100 100 100 100 99 74 68 50 47 100 100 100 95 80 66 100 100 100 100 100 100 97
Wind_Speed
48 46 44 48 47 44 39 34 30 26 22 17 12 15 14 10 10 10 7 7 14 19 14 11 8 12 18 23 18 16 14 14 14 14 14 11 12 12 11 9 8 10 8 8 9 10 13 14 16
45 45 46 49 51 46 45 39 31 28 26 23 19 16 18 19 17 16 9 9 11 14 16 17 13 14 18 21 26 16 15 17 14 13 13 10 9 8 9 9 9 10 10 10 10 15 16 17 18
51 46 48 49 52 54 48 44 36 28 23 24 25 26 22 17 18 20 16 21 13 9 12 18 19 16 21 20 17 16 13 11 11 11 11 9 10 9 9 8 9 11 12 14 16 17 18 21 19
45 48 45 52 52 52 52 48 42 33 25 17 15 16 19 20 22 23 24 23 12 9 8 11 17 15 16 13 15 13 11 10 8 10 12 11 12 11 11 12 11 11 16 17 15 16 20 20 22
45 46 47 50 51 53 50 52 47 35 23 20 17 19 19 21 24 26 26 22 16 8 7 3 7 8 7 9 8 9 7 10 12 13 12 8 11 14 14 13 15 14 15 15 15 18 19 21 19
44 41 48 50 56 50 53 50 52 48 41 29 19 21 23 23 22 25 21 19 17 12 8 7 9 8 6 6 8 8 9 9 7 4 9 11 14 16 16 14 13 11 11 14 16 16 18 19 16
40 40 41 48 50 53 52 52 51 56 54 47 36 27 26 25 24 23 18 16 17 13 10 7 7 5 5 7 8 11 13 12 12 8 12 12 12 10 10 10 10 8 13 15 15 14 17 16 9
38 40 43 42 47 51 53 52 50 53 57 55 49 31 26 27 27 25 21 14 16 13 12 11 10 6 7 8 8 10 12 13 12 11 13 10 11 10 8 7 9 10 14 16 17 16 18 16 16
41 40 43 39 42 46 52 50 51 52 52 55 53 47 31 25 27 28 25 16 15 18 17 14 14 13 12 8 10 11 13 12 15 16 15 11 12 11 11 11 13 15 19 23 26 23 21 21 20
44 37 41 41 39 44 47 50 49 51 52 51 52 51 47 32 25 26 28 23 21 18 20 21 17 18 16 18 19 15 13 15 17 18 17 16 13 14 17 17 17 16 20 24 25 21 22 24 22
45 41 39 40 35 41 45 46 52 54 49 53 53 49 49 47 35 25 26 27 25 23 20 19 21 21 21 22 20 19 17 17 18 19 19 18 17 16 18 20 19 17 19 19 22 23 22 21 23
40 40 38 38 38 40 42 45 46 51 52 50 50 51 50 48 44 42 24 24 26 27 26 24 22 21 23 23 24 26 23 19 20 19 21 20 16 18 21 21 21 23 22 25 22 26 25 28 26
34 36 40 37 43 41 40 39 45 47 49 50 50 48 50 49 46 46 39 27 26 29 33 30 27 25 23 22 24 26 27 26 23 21 19 20 20 23 24 27 28 30 28 27 26 27 28 33 30
34 41 36 36 38 42 41 40 43 47 47 47 50 51 51 50 46 45 43 40 27 26 29 33 32 28 27 25 26 27 26 26 28 22 20 21 25 26 25 27 28 29 30 29 29 29 29 30 31
40 34 35 35 40 41 41 38 40 45 47 44 46 51 52 52 47 44 44 43 39 27 26 30 33 33 28 27 29 30 29 28 26 26 27 27 26 27 28 28 28 30 30 33 34 30 31 29 34
44 43 37 42 40 41 42 39 38 43 43 43 49 47 50 50 47 48 45 43 41 36 26 24 30 35 35 33 31 30 30 31 29 30 32 32 29 29 30 31 29 31 34 37 37 34 34 34 37
45 46 46 41 43 46 48 45 39 41 37 41 47 48 50 49 47 43 46 43 42 37 35 29 23 27 31 35 39 39 33 31 31 33 33 34 33 31 33 33 32 31 34 35 37 36 37 36 37
44 43 43 46 46 49 48 49 46 41 40 42 46 47 47 49 45 45 43 45 44 38 36 35 27 24 25 31 36 40 41 41 39 37 36 35 35 38 37 37 37 36 37 40 38 41 41 40 39
53 52 56 49 50 50 49 50 47 46 43 45 48 49 45 48 46 48 45 43 43 40 37 33 33 33 26 23 30 34 37 40 41 40 39 40 41 40 38 40 42 41 40 41 42 38 42 42 41
61 56 58 53 50 51 50 50 50 50 48 48 49 50 48 48 43 50 42 39 41 40 37 35 33 37 34 26 25 31 34 33 34 36 36 38 39 39 40 42 42 43 44 40 39 39 42 43 44
63 62 59 56 51 50 54 54 47 50 51 50 50 53 50 47 45 48 47 43 37 40 40 35 32 35 34 34 28 26 32 34 35 32 36 38 38 39 40 44 44 43 44 40 40 38 37 44 47
69 69 64 57 52 55 53 55 52 53 54 53 51 52 51 49 51 51 51 53 43 41 39 38 33 32 34 33 34 31 30 34 36 38 39 39 40 40 40 42 43 43 45 43 41 40 41 43 43
70 70 70 65 56 52 56 51 58 55 55 56 53 52 54 53 54 53 51 56 48 42 39 39 35 34 35 36 33 35 33 32 35 38 38 38 39 42 42 44 46 44 45 47 45 43 48 47 45
78 74 77 74 66 52 64 54 59 59 61 60 57 57 55 55 57 57 52 54 54 45 39 40 39 37 37 37 36 35 38 39 37 36 37 39 39 40 46 46 47 46 47 48 48 47 52 53 54
88 81 80 75 69 60 62 54 62 64 63 63 62 60 61 58 58 57 57 56 57 52 44 40 41 40 40 41 40 39 40 44 45 43 41 38 40 42 47 47 47 49 50 49 51 56 57 55 54
96 91 82 79 75 68 64 60 65 68 69 67 66 66 62 64 62 62 61 58 61 58 51 48 45 44 43 44 46 46 51 50 52 49 47 43 43 44 48 51 48 51 51 58 58 60 60 60 58
97 96 89 83 77 74 70 66 65 71 75 73 71 70 67 65 66 62 63 66 67 63 55 51 49 46 48 44 48 49 48 54 57 58 53 51 50 50 51 56 56 58 60 60 61 64 65 66 65
96 97 93 91 83 80 71 68 67 71 78 79 77 75 72 66 69 66 70 67 69 68 62 56 54 51 48 49 49 47 46 48 48 54 61 61 57 54 52 54 55 59 62 64 63 65 67 69 69
102 97 94 95 89 82 76 69 70 67 78 85 85 81 77 72 73 69 70 71 71 67 66 61 60 58 56 54 51 52 50 52 48 48 55 61 60 58 57 57 58 60 63 66 68 70 69 69 71
103 96 94 92 86 89 78 62 67 70 79 85 84 83 80 77 80 74 70 71 71 69 68 63 58 57 58 60 58 54 54 57 53 52 57 51 60 61 66 62 62 63 67 69 71 72 73 75 77
Wind_Direction
12 13 15 16 16 16 14 20 21 13 8 0 309 318 333 8 358 300 290 300 306 295 305 308 259 294 312 297 296 282 274 271 276 283 283 289 289 299 291 289 284 281 274 283 295 293 305 317 315
15 12 16 18 15 16 15 15 22 16 7 344 343 330 342 348 350 355 347 324 310 274 277 294 276 282 293 295 276 255 259 268 278 279 279 285 289 298 295 290 283 288 293 298 294 305 317 316 316
17 15 16 15 13 18 17 16 15 19 11 354 344 334 329 323 340 347 350 332 317 288 276 273 258 259 280 293 278 265 261 266 272 281 288 291 292 289 281 283 299 302 301 298 303 311 315 320 321
11 9 13 15 14 14 17 19 17 13 21 14 356 343 343 341 344 346 342 342 332 297 269 266 248 259 269 277 277 272 255 258 259 274 279 280 285 291 286 291 297 302 295 299 307 301 310 312 314
9 11 11 15 13 13 15 18 20 20 13 12 0 357 347 352 349 344 335 336 350 346 301 225 213 245 263 278 279 280 264 272 281 277 272 278 293 291 289 287 295 299 292 292 300 301 307 317 328
7 11 12 11 13 14 16 15 20 20 19 17 18 13 12 2 353 340 337 328 337 348 306 272 261 254 219 273 269 263 263 267 259 249 281 291 293 287 276 277 283 281 283 287 296 300 316 320 324
359 1 359 5 7 13 14 14 20 22 18 18 15 12 10 360 355 344 334 318 332 344 336 307 268 256 273 279 278 275 261 253 247 286 304 307 314 302 276 267 261 251 261 282 286 295 306 305 295
358 355 358 4 8 7 8 11 13 15 16 17 17 11 4 1 352 347 341 311 316 324 332 296 266 271 274 274 272 274 272 249 250 282 299 305 306 302 296 278 268 259 272 281 293 288 289 280 281
346 353 351 353 1 359 3 9 11 13 15 13 16 16 5 351 348 345 342 334 314 308 315 321 296 295 276 281 285 288 301 284 270 278 290 293 294 295 293 288 293 282 285 287 292 286 270 272 270
339 345 350 350 355 1 360 3 4 8 12 13 12 16 14 2 342 338 336 333 325 316 301 308 302 297 284 284 289 299 302 300 283 281 284 283 295 296 288 289 288 285 288 289 290 276 275 268 263
335 335 339 343 349 351 352 355 1 1 1 6 10 8 13 13 7 347 330 327 332 325 306 301 303 304 297 290 286 285 296 302 296 290 281 281 294 300 287 282 275 281 300 302 279 272 267 257 266
328 328 333 344 343 344 349 343 356 357 1 355 4 3 5 9 11 6 353 322 323 320 322 305 296 291 292 295 292 292 283 293 299 295 290 278 287 299 303 286 280 282 291 303 300 276 266 264 265
323 322 320 326 335 335 343 341 347 350 355 354 356 1 360 4 7 7 7 350 318 317 317 321 311 291 290 295 293 292 289 287 295 300 299 281 293 302 296 299 291 283 288 295 302 300 276 266 266
306 317 313 320 332 333 337 341 338 343 346 350 350 353 355 358 3 4 2 2 345 321 310 313 314 311 296 286 289 289 291 291 279 298 301 293 290 292 294 302 296 284 282 295 307 309 298 278 267
297 303 304 314 320 325 329 342 334 336 338 346 346 345 349 351 355 359 359 359 358 351 325 317 311 311 313 308 295 292 291 288 287 283 296 298 294 296 295 299 295 287 287 292 300 311 306 284 275
289 292 295 297 309 314 318 329 332 331 329 341 337 339 341 343 344 350 353 358 356 356 353 328 316 312 311 308 306 307 300 293 286 281 285 290 294 292 293 296 291 291 288 295 300 303 305 291 282
291 285 288 302 302 309 309 313 320 328 321 332 335 331 335 336 340 343 349 352 357 355 354 354 331 317 315 309 309 310 309 306 296 289 286 288 291 293 292 291 292 288 293 297 294 298 303 300 298
285 283 286 302 301 303 303 306 315 319 315 318 326 329 329 328 334 337 344 346 350 352 351 349 346 338 317 307 303 306 307 308 304 302 296 291 292 295 290 293 294 296 297 295 298 297 301 299 299
278 280 281 290 297 299 300 304 311 313 310 313 319 323 323 326 325 331 337 340 343 344 346 346 349 346 337 313 296 293 295 296 300 301 298 297 294 294 293 291 292 295 296 296 297 298 300 296 298
277 277 277 285 292 295 295 300 302 305 304 310 317 318 320 320 320 326 331 333 335 337 340 340 342 344 337 328 312 302 299 298 290 290 292 294 295 294 295 293 295 295 296 293 296 299 298 296 296
273 275 277 278 284 291 295 298 300 301 303 307 312 313 317 315 311 323 323 325 326 328 333 335 337 335 336 331 322 310 309 305 297 293 294 293 292 290 293 292 291 292 293 293 291 287 286 289 290
277 276 276 274 278 286 288 294 295 298 299 302 304 309 311 312 311 313 324 320 324 325 325 327 329 329 328 330 325 320 310 304 300 301 301 299 294 288 285 284 286 288 291 294 292 293 292 292 292
274 274 274 274 275 280 286 292 295 296 295 298 299 303 306 307 311 307 316 319 319 323 319 318 317 315 312 318 320 316 316 314 302 299 296 296 295 292 288 288 287 286 287 286 288 290 294 294 291
274 274 273 274 273 275 281 288 294 295 296 296 295 298 301 305 309 307 308 310 312 314 309 306 305 304 302 300 308 310 307 307 309 308 303 298 296 295 287 288 287 286 286 288 285 288 294 294 290
273 272 271 271 275 269 275 284 290 294 293 291 291 297 300 299 304 302 302 303 306 308 305 300 300 297 296 296 292 299 302 302 299 302 302 303 305 303 296 290 289 289 289 286 287 292 289 290 285
267 271 270 271 268 268 274 280 285 290 291 292 293 292 297 296 297 300 300 298 300 302 307 302 303 300 293 295 296 296 297 295 295 295 298 294 296 307 312 299 291 286 283 286 287 291 290 287 289
263 271 270 270 268 270 272 279 282 286 287 289 290 291 293 291 291 295 295 296 297 300 301 305 299 293 301 294 293 296 299 301 299 295 295 296 297 298 303 302 299 294 293 292 292 294 293 291 290
267 269 270 272 271 271 272 273 280 280 284 287 287 289 290 290 289 292 297 293 297 298 298 302 299 295 292 294 288 288 290 295 301 302 298 294 296 298 295 297 296 294 289 289 290 294 294 292 291
262 267 268 269 271 273 272 272 274 275 279 284 286 287 288 291 288 289 296 292 295 293 293 296 298 296 291 293 288 289 285 291 296 298 298 295 293 293 295 295 293 291 287 285 284 283 284 285 283
261 266 267 271 272 270 270 274 272 272 278 283 285 285 288 288 288 286 293 292 292 292 297 293 295 293 288 290 287 283 280 282 292 300 306 293 293 287 289 290 290 290 286 284 284 283 283 283 283